Regional Weather Roundup
Issued by NWS Northern Indiana

Home | Current Version | Previous Version | Graphics & Text | Print | Product List | Glossary On
Versions: 1 2 3 4 5 6 7 8 9 10 11 12 13 14 15 16 17 18 19 20 21 22 23 24 25 26 27 28 29 30 31 32 33 34 35 36 37 38 39 40 41 42 43 44 45 46 47 48 49 50
000
ASUS43 KIWX 240910
RWRIWX

KIWX WEATHER ROUNDUP
NATIONAL WEATHER SERVICE NORTHERN INDIANA
400 AM EST TUE JAN 24 2017

NOTE: "FAIR" INDICATES FEW OR NO CLOUDS BELOW 12,000 FEET WITH NO
SIGNIFICANT WEATHER AND/OR OBSTRUCTIONS TO VISIBILITY.

* THESE STATIONS ARE NOT UNDER NWS QUALITY CONTROL. THEY ALSO MAY NOT
  REPORT WEATHER SUCH AS PRECIPITATION OR FOG.

INZ001>027-241000-
NORTHERN INDIANA

CITY           SKY/WX    TMP DP  RH WIND       PRES   REMARKS
GARY*          CLOUDY    40  34  79 W6        29.84R
VALPARAISO     CLOUDY    39  37  92 NW6       29.82R
LAPORTE*       CLOUDY    37  35  92 NW8       29.81S
KNOX*          CLOUDY    37  27  65 NW8       29.80S
SOUTH BEND     CLOUDY    37  36  96 NW10      29.80R
GOSHEN         CLOUDY    39  36  89 NW12      29.78R FOG
ROCHESTER*     CLOUDY    41  37  87 NW9       29.80R
WARSAW*        CLOUDY    37  36  93 NW9       29.79R FOG
FORT WAYNE     CLOUDY    40  38  93 NW9G18    29.76R
PERU/GRISSOM   CLOUDY    39  39 100 NW10      29.77R
MARION*        CLOUDY    37  37 100 NW8       29.78S FOG

$$
INZ028>050-241000-
CENTRAL INDIANA

CITY           SKY/WX    TMP DP  RH WIND       PRES   REMARKS
LAFAYETTE      CLOUDY    39  36  89 NW6       29.82R
KOKOMO*        CLOUDY    39  37  92 NW12      29.79R FOG
MUNCIE*        CLOUDY    40  38  93 NW10      29.77R FOG
INDIANAPOLIS   CLOUDY    40  35  83 NW12      29.79S

$$
MIZ043>046-050>051-056>058-064>065-071>073-077>080-241000-
SOUTHWEST LOWER MICHIGAN

CITY           SKY/WX    TMP DP  RH WIND       PRES   REMARKS
BATTLE CREEK   CLOUDY    39  39 100 NW7       29.75R
BENTON HARBOR  CLOUDY    39  36  89 NW8       29.80R
COLDWATER*     CLOUDY    40  40 100 NW7       29.74R
HILLSDALE*     CLOUDY    36  36 100 NW7       29.71R FOG
HOLLAND        CLOUDY    38  36  92 NW9       29.79R
GRAND RAPIDS   CLOUDY    39  37  92 NW7       29.75S
KALAMAZOO      CLOUDY    39  36  89 W7        29.76R
STURGIS*       CLOUDY    38  38 100 NW7       29.76R FOG
THREE RIVERS*  CLOUDY    39  38  96 NW7       29.77R FOG

$$
OHZ001>008-015>018-024>025-241000-
NORTHWEST OHIO

CITY           SKY/WX    TMP DP  RH WIND       PRES   REMARKS
DEFIANCE       CLOUDY    40  38  93 NW3       29.73S
FINDLAY        CLOUDY    38  34  85 N6        29.70R
TOLEDO EXPRESS CLOUDY    37  37 100 CALM      29.72R FOG
TOLEDO METCALF CLOUDY    38  36  92 E5        29.72S
LIMA           CLOUDY    39  32  76 NW8       29.71R FOG

$$
AND FOR LAKE MICHIGAN COASTAL AND OPEN LAKE BUOY OBSERVATIONS

STATION/POSITION TEMP    WIND        PRES    VSBY  WAVE
                 AIR SEA DIR/SP/G                  HT/PER
                 (F)     (DEG/KT/KT) (MB)    (MI)  (FT/S)
CALUMET HARBOR    39     270/  4/  8 1009.8R
MICHIGAN CITY     36     290/ 10/ 11   N/A
BURNS HARBOR      35     330/  8/ 10 1010.5R

$$
&&



USA.gov is the U.S. government's official web portal to all federal, state and local government web resources and services.